Flag for Switzerland Weather past 2 weeks in La-Chaux-de-Fonds, Neuchâtel, Switzerland

Now
46 °F

Sprinkles. Broken clouds.


Feels Like: 42 °F
Forecast: 39 / 58 °F
Wind: 8 mph from West

Location: Les Eplatures


UV Index: 0 (Low)

Visibility: N/A


Pressure: 29.68 "Hg

Humidity: 87%

Dew point: 43 °F

Location of La-Chaux-de-FondsLocation

Historic Weather in La-Chaux-de-Fonds

°F

La-Chaux-de-Fonds temperature yesterday

Maximum temperature yesterday: 55 °F (at 1:20 PM)
Minimum temperature yesterday: 28 °F (at 5:20 AM)
Average temperature yesterday: 44 °F

Past Weeks' High & Low Weather Summary

 TemperatureHumidityPressure
High64 °F (Apr 7, 2:20 PM)100% (Apr 7, 1:50 AM)30.30 "Hg (Apr 7, 1:50 AM)
Low28 °F (Apr 15, 4:20 AM)25% (Apr 17, 11:50 AM)29.65 "Hg (Apr 20, 1:20 PM)
Average44 °F70%30.04 "Hg
* Reported Apr 6 1:20 PM — Apr 21 1:50 PM, La-Chaux-de-Fonds, Weather by CustomWeather, © 2014

Note: Actual official high and low records may vary slightly from our data, if they occured in-between our weather recording intervals... More about our weather records

Advertising

Historic Weather Conditions — Data for Previous 24 hours

 ConditionsComfort  
Time TempWeatherWind HumidityBarometerVisibility
1:50 PM
Apr 21
46 °FSprinkles. Broken clouds.6 mph87%29.65 "HgN/A
1:20 PM46 °FLight rain. Partly sunny.6 mph87%29.65 "HgN/A
12:50 PM46 °FLight rain. Broken clouds.5 mph87%29.65 "HgN/A
12:20 PM46 °FPartly sunny.5 mph82%29.65 "HgN/A
11:50 AM45 °FCloudy.2 mph87%29.65 "HgN/A
11:20 AM45 °FPartly sunny.3 mph87%29.65 "HgN/A
10:50 AM43 °FSprinkles. Broken clouds.2 mph93%29.65 "HgN/A
10:20 AM43 °FMostly cloudy.1 mph93%29.65 "HgN/A
9:50 AM43 °FLight rain. Cloudy.2 mph100%29.65 "Hg5 mi
9:20 AM41 °FLight rain. Mostly cloudy.2 mph100%29.65 "Hg5 mi
8:50 AM41 °FLight rain. Cloudy.3 mph100%29.65 "Hg5 mi
8:20 AM41 °FLight rain. Partly cloudy.1 mph100%29.65 "HgN/A
7:50 AM41 °FLight rain. Mostly cloudy.2 mph100%29.65 "Hg5 mi
7:20 AM41 °FLight rain. Partly cloudy.1 mph100%29.65 "Hg6 mi
6:50 AM41 °FRain. Partly cloudy.1 mph100%29.65 "Hg4 mi
6:20 AM41 °FLight rain. Passing clouds.2 mph100%29.65 "Hg4 mi
5:50 AM41 °FLight rain. Low clouds.2 mph100%29.65 "Hg4 mi
5:20 AM41 °FLight rain. Passing clouds.2 mph100%29.65 "Hg3 mi
4:50 AM41 °FLight rain. Passing clouds.2 mph100%29.65 "Hg4 mi
4:20 AM41 °FLight rain. Fog.2 mph100%29.65 "Hg3 mi
3:50 AM41 °FLight rain. Low clouds.2 mph100%29.65 "Hg6 mi
3:20 AM41 °FLight rain. Passing clouds.1 mph100%29.65 "HgN/A
2:50 AM43 °FLight rain. Passing clouds.1 mph93%29.68 "HgN/A
2:20 AM43 °FLight rain. Passing clouds.No wind87%29.68 "HgN/A
1:50 AM43 °FClear.1 mph87%29.68 "HgN/A
1:20 AM43 °FSprinkles. Overcast.1 mph87%29.68 "HgN/A
12:50 AM45 °FSprinkles. Overcast.No wind81%29.68 "HgN/A
12:20 AM45 °FPartly cloudy.1 mph76%29.68 "HgN/A
11:50 PM
Apr 20
45 °FPassing clouds.1 mph71%29.68 "HgN/A
11:20 PM45 °FClear.1 mph71%29.68 "HgN/A
10:50 PM46 °FMostly cloudy.1 mph66%29.68 "HgN/A
10:20 PM46 °FMore clouds than sun.1 mph66%29.68 "HgN/A
9:50 PM46 °FBroken clouds.3 mph66%29.68 "HgN/A
9:20 PM48 °FOvercast.6 mph58%29.68 "HgN/A
8:50 PM50 °FSunny.2 mph58%29.68 "Hg10 mi
8:20 PM50 °FPassing clouds.5 mph62%29.68 "HgN/A
7:50 PM50 °FPassing clouds.5 mph62%29.65 "HgN/A
7:20 PM52 °FPassing clouds.6 mph58%29.65 "HgN/A
6:50 PM52 °FPassing clouds.6 mph58%29.65 "HgN/A
6:20 PM52 °FPartly sunny.7 mph58%29.65 "HgN/A
5:50 PM54 °FPartly sunny.5 mph58%29.65 "HgN/A
5:20 PM54 °FPartly sunny.6 mph58%29.65 "HgN/A
4:50 PM55 °FPartly sunny.3 mph51%29.65 "HgN/A
4:20 PM54 °FPartly sunny.6 mph51%29.65 "HgN/A
3:50 PM54 °FPartly sunny.6 mph51%29.65 "HgN/A
3:20 PM54 °FPartly sunny.8 mph54%29.65 "HgN/A
Weather by CustomWeather, © 2014

See weather overview